Location: Ford County Road and Bridge Department
(37.7686°N, 99.9762°W)
Time: 15:21:16
(UTC+00:00)

CZ-4 R/B - Pass Details

Date: 18 January 2020
Orbit: 533 x 597 km, 97.7° (Epoch: 27 February)

Event Time Altitude Azimuth Distance (km) Brightness Sun altitude
Rises 01:19:20 0° 176° (S) 2,708 5.0 -18.1°
Reaches altitude 10° 01:21:28 10° 181° (S) 1,828 4.1 -18.5°
Maximum altitude 01:25:21 56° 260° (W) 671 2.0 -19.3°
Drops below altitude 10° 01:29:22 10° 339° (NNW) 1,881 4.1 -20.0°
Sets 01:31:34 0° 344° (NNW) 2,794 5.0 -20.5°
